Zurück zum Katalog

STARLINK-6286

AktivKommunikationVLEO
NORAD 56558·PAYLOAD·🇺🇸 United States

Gestartet May 14, 2023 von Cape Canaveral Space Force Station

Loading…

Nächste Überflüge (nächste 24 Stunden)

TLE

AktuellSource: CelesTrak SupGP

Epoche: Sep 15, 2026, 02:06 UTC

1 56558C 23065BH  26258.08798611 -.00025403  00000+0 -92025-3 0  2582
2 56558  43.0022 237.3902 0001309 269.2379 239.8224 15.27586410    19

Verfolge STARLINK-6286 in Echtzeit mit AllMySat

Download on the App Store